Time,TemperatureF,DewpointF,PressureIn,WindDirection,WindDirectionDegrees,WindSpeedMPH,WindSpeedGustMPH,Humidity,HourlyPrecipIn,Conditions,Clouds,dailyrainin,SoftwareType,DateUTC
2013-07-25 00:01:00,68.0,57.5,30.20,NW,315,0.9,0.9,69,0.00,,---,0.00,VWS V14.01,2013-07-25 06:01:00,
2013-07-25 00:06:00,67.7,57.2,30.20,NW,315,1.1,1.1,69,0.00,,---,0.00,VWS V14.01,2013-07-25 06:06:00,
2013-07-25 00:11:00,67.7,57.2,30.20,NW,315,0.0,0.0,69,0.00,,---,0.00,VWS V14.01,2013-07-25 06:11:00,
2013-07-25 00:16:00,67.5,56.6,30.20,NW,315,0.0,0.0,68,0.00,,---,0.00,VWS V14.01,2013-07-25 06:16:00,
2013-07-25 00:21:00,67.3,57.2,30.20,West,270,0.0,0.0,70,0.00,,---,0.00,VWS V14.01,2013-07-25 06:21:00,
2013-07-25 00:26:00,67.5,57.8,30.19,WSW,248,1.1,1.1,71,0.00,,---,0.00,VWS V14.01,2013-07-25 06:26:00,
2013-07-25 00:31:00,67.7,57.6,30.20,WSW,248,0.0,0.0,70,0.00,,---,0.00,VWS V14.01,2013-07-25 06:31:00,
2013-07-25 00:36:00,67.7,57.6,30.20,SW,225,0.4,0.4,70,0.00,,---,0.00,VWS V14.01,2013-07-25 06:36:00,
2013-07-25 00:41:00,67.9,57.8,30.20,WSW,248,1.6,1.6,70,0.00,,---,0.00,VWS V14.01,2013-07-25 06:41:00,
2013-07-25 00:46:00,67.7,58.0,30.20,SW,225,2.0,2.0,71,0.00,,---,0.00,VWS V14.01,2013-07-25 06:46:00,
2013-07-25 00:51:00,67.7,58.0,30.20,SSW,202,1.1,1.1,71,0.00,,---,0.00,VWS V14.01,2013-07-25 06:51:00,
2013-07-25 00:56:00,67.7,57.6,30.20,SW,225,1.6,1.6,70,0.00,,---,0.00,VWS V14.01,2013-07-25 06:56:00,
2013-07-25 01:01:00,67.7,57.2,30.20,SW,225,1.1,1.1,69,0.00,,---,0.00,VWS V14.01,2013-07-25 07:01:00,
2013-07-25 01:06:00,67.5,56.6,30.20,SSW,202,0.9,0.9,68,0.00,,---,0.00,VWS V14.01,2013-07-25 07:06:00,
2013-07-25 01:11:00,67.5,57.0,30.19,SW,225,0.7,0.7,69,0.00,,---,0.00,VWS V14.01,2013-07-25 07:11:00,
2013-07-25 01:16:00,67.3,57.2,30.20,SW,225,2.2,2.2,70,0.00,,---,0.00,VWS V14.01,2013-07-25 07:16:00,
2013-07-25 01:21:00,67.0,57.3,30.19,SSW,202,0.7,0.7,71,0.00,,---,0.00,VWS V14.01,2013-07-25 07:21:00,
2013-07-25 01:26:00,66.8,57.1,30.19,SSW,202,0.7,0.7,71,0.00,,---,0.00,VWS V14.01,2013-07-25 07:26:00,
2013-07-25 01:31:00,66.8,56.7,30.20,SW,225,0.9,0.9,70,0.00,,---,0.00,VWS V14.01,2013-07-25 07:31:00,
2013-07-25 01:36:00,66.8,56.7,30.19,SSW,202,0.0,0.0,70,0.00,,---,0.00,VWS V14.01,2013-07-25 07:36:00,
2013-07-25 01:41:00,66.8,56.7,30.19,SSW,202,0.7,0.7,70,0.00,,---,0.00,VWS V14.01,2013-07-25 07:41:00,
2013-07-25 01:46:00,66.8,56.7,30.19,SSW,202,0.4,0.4,70,0.00,,---,0.00,VWS V14.01,2013-07-25 07:46:00,
2013-07-25 01:51:00,66.8,56.3,30.19,SSW,202,0.2,0.2,69,0.00,,---,0.00,VWS V14.01,2013-07-25 07:51:00,
2013-07-25 01:56:00,66.6,56.5,30.19,South,180,1.3,1.3,70,0.00,,---,0.00,VWS V14.01,2013-07-25 07:56:00,
2013-07-25 02:01:00,66.6,56.5,30.19,SSE,158,0.2,0.2,70,0.00,,---,0.00,VWS V14.01,2013-07-25 08:01:00,
2013-07-25 02:06:00,66.6,56.5,30.19,SSE,158,0.0,0.0,70,0.00,,---,0.00,VWS V14.01,2013-07-25 08:06:00,
2013-07-25 02:11:00,66.6,56.5,30.19,South,180,0.4,0.4,70,0.00,,---,0.00,VWS V14.01,2013-07-25 08:11:00,
2013-07-25 02:16:00,66.8,57.1,30.20,SW,225,1.6,1.6,71,0.00,,---,0.00,VWS V14.01,2013-07-25 08:16:00,
2013-07-25 02:21:00,66.8,56.7,30.19,SW,225,0.4,0.4,70,0.00,,---,0.00,VWS V14.01,2013-07-25 08:21:00,
2013-07-25 02:26:00,67.0,56.9,30.20,SW,225,0.9,0.9,70,0.00,,---,0.00,VWS V14.01,2013-07-25 08:26:00,
2013-07-25 02:31:00,66.8,56.7,30.19,SW,225,0.4,0.4,70,0.00,,---,0.00,VWS V14.01,2013-07-25 08:31:00,
2013-07-25 02:36:00,66.8,56.3,30.19,SW,225,0.0,0.0,69,0.00,,---,0.00,VWS V14.01,2013-07-25 08:36:00,
2013-07-25 02:41:00,66.6,56.5,30.19,SW,225,1.1,1.1,70,0.00,,---,0.00,VWS V14.01,2013-07-25 08:41:00,
2013-07-25 02:46:00,66.8,56.7,30.20,SW,225,0.0,0.0,70,0.00,,---,0.00,VWS V14.01,2013-07-25 08:46:00,
2013-07-25 02:51:00,66.8,56.7,30.19,SW,225,1.1,1.1,70,0.00,,---,0.00,VWS V14.01,2013-07-25 08:51:00,
2013-07-25 02:56:00,67.0,56.9,30.20,SW,225,0.4,0.4,70,0.00,,---,0.00,VWS V14.01,2013-07-25 08:56:00,
2013-07-25 03:01:00,67.0,56.5,30.20,SW,225,0.4,0.4,69,0.00,,---,0.00,VWS V14.01,2013-07-25 09:01:00,
2013-07-25 03:06:00,67.0,56.5,30.20,SSW,202,0.4,0.4,69,0.00,,---,0.00,VWS V14.01,2013-07-25 09:06:00,
2013-07-25 03:11:00,67.0,56.9,30.20,SW,225,1.1,1.1,70,0.00,,---,0.00,VWS V14.01,2013-07-25 09:11:00,
2013-07-25 03:16:00,67.0,56.9,30.20,SW,225,0.4,0.4,70,0.00,,---,0.00,VWS V14.01,2013-07-25 09:16:00,
2013-07-25 03:20:00,67.0,56.5,30.20,SSW,202,0.4,0.4,69,0.00,,---,0.00,VWS V14.01,2013-07-25 09:20:00,
2013-07-25 03:25:00,67.0,56.9,30.20,SSW,202,0.7,0.7,70,0.00,,---,0.00,VWS V14.01,2013-07-25 09:25:00,
2013-07-25 03:30:00,67.0,56.9,30.20,SSW,202,0.0,0.0,70,0.00,,---,0.00,VWS V14.01,2013-07-25 09:30:00,
2013-07-25 03:35:00,66.6,57.3,30.20,South,180,0.4,0.4,72,0.00,,---,0.00,VWS V14.01,2013-07-25 09:35:00,
2013-07-25 03:40:00,66.6,57.7,30.20,SSE,158,0.0,0.0,73,0.00,,---,0.31,VWS V14.01,2013-07-25 09:40:00,
2013-07-25 03:45:00,66.4,57.9,30.20,SSW,202,0.9,0.9,74,0.00,,---,0.00,VWS V14.01,2013-07-25 09:45:00,
2013-07-25 03:50:00,66.2,58.0,30.20,South,180,1.1,1.1,75,0.00,,---,0.00,VWS V14.01,2013-07-25 09:50:00,
2013-07-25 03:55:00,66.2,58.0,30.19,SSW,202,0.9,0.9,75,0.00,,---,0.00,VWS V14.01,2013-07-25 09:55:00,
2013-07-25 04:00:00,66.2,57.7,30.20,SSW,202,0.0,0.0,74,0.00,,---,0.00,VWS V14.01,2013-07-25 10:00:00,
2013-07-25 04:05:00,66.2,57.7,30.19,South,180,0.0,0.0,74,0.00,,---,0.00,VWS V14.01,2013-07-25 10:05:00,
2013-07-25 04:10:00,66.2,57.7,30.20,SE,135,1.6,1.6,74,0.00,,---,0.00,VWS V14.01,2013-07-25 10:10:00,
2013-07-25 04:15:00,66.4,57.9,30.19,SE,135,1.3,1.3,74,0.00,,---,0.00,VWS V14.01,2013-07-25 10:15:00,
2013-07-25 04:20:00,66.6,57.7,30.20,South,180,0.9,0.9,73,0.00,,---,0.00,VWS V14.01,2013-07-25 10:20:00,
2013-07-25 04:25:00,66.6,57.3,30.19,South,180,0.4,0.4,72,0.00,,---,0.00,VWS V14.01,2013-07-25 10:25:00,
2013-07-25 04:30:00,66.8,57.5,30.20,South,180,0.2,0.2,72,0.00,,---,0.00,VWS V14.01,2013-07-25 10:30:00,
2013-07-25 04:35:00,66.8,57.5,30.19,South,180,0.0,0.0,72,0.00,,---,0.00,VWS V14.01,2013-07-25 10:35:00,
2013-07-25 04:40:00,66.8,57.1,30.19,South,180,0.4,0.4,71,0.00,,---,0.00,VWS V14.01,2013-07-25 10:40:00,
2013-07-25 04:45:00,66.8,57.1,30.19,SSE,158,0.4,0.4,71,0.00,,---,0.00,VWS V14.01,2013-07-25 10:45:00,
2013-07-25 04:50:00,67.0,57.3,30.19,SSE,158,0.2,0.2,71,0.00,,---,0.00,VWS V14.01,2013-07-25 10:50:00,
2013-07-25 04:55:00,67.3,57.2,30.19,SSE,158,1.1,1.1,70,0.00,,---,0.00,VWS V14.01,2013-07-25 10:55:00,
2013-07-25 05:00:00,67.5,57.0,30.19,South,180,0.7,0.7,69,0.00,,---,0.00,VWS V14.01,2013-07-25 11:00:00,
2013-07-25 05:05:00,67.7,57.2,30.18,SE,135,0.7,0.7,69,0.00,,---,0.00,VWS V14.01,2013-07-25 11:05:00,
2013-07-25 05:10:00,67.5,56.6,30.18,SSE,158,0.2,0.2,68,0.00,,---,0.00,VWS V14.01,2013-07-25 11:10:00,
2013-07-25 05:15:00,67.3,56.4,30.18,SE,135,0.0,0.0,68,0.00,,---,0.00,VWS V14.01,2013-07-25 11:15:00,
2013-07-25 05:20:00,67.1,56.6,30.18,SE,135,0.2,0.2,69,0.00,,---,0.00,VWS V14.01,2013-07-25 11:20:00,
2013-07-25 05:25:00,67.0,56.5,30.18,SE,135,0.0,0.0,69,0.00,,---,0.00,VWS V14.01,2013-07-25 11:25:00,
2013-07-25 05:30:00,66.8,56.3,30.18,SE,135,0.0,0.0,69,0.00,,---,0.00,VWS V14.01,2013-07-25 11:30:00,
2013-07-25 05:35:00,66.6,56.1,30.18,SE,135,0.0,0.0,69,0.00,,---,0.00,VWS V14.01,2013-07-25 11:35:00,
2013-07-25 05:40:00,66.2,56.1,30.18,SE,135,0.0,0.0,70,0.00,,---,0.00,VWS V14.01,2013-07-25 11:40:00,
2013-07-25 05:45:00,66.1,56.0,30.18,SE,135,0.0,0.0,70,0.00,,---,0.00,VWS V14.01,2013-07-25 11:45:00,
2013-07-25 05:50:00,65.7,55.7,30.18,SE,135,0.0,0.0,70,0.00,,---,0.00,VWS V14.01,2013-07-25 11:50:00,
2013-07-25 05:55:00,65.7,56.4,30.18,NNE,22,0.0,0.0,72,0.00,,---,0.00,VWS V14.01,2013-07-25 11:55:00,
2013-07-25 06:00:00,65.9,56.6,30.18,NNE,22,0.0,0.0,72,0.00,,---,0.00,VWS V14.01,2013-07-25 12:00:00,
2013-07-25 06:05:00,66.1,56.8,30.18,NNW,338,0.4,0.4,72,0.00,,---,0.00,VWS V14.01,2013-07-25 12:05:00,
2013-07-25 06:10:00,66.2,56.5,30.19,NNW,338,0.0,0.0,71,0.00,,---,0.00,VWS V14.01,2013-07-25 12:10:00,
2013-07-25 06:15:00,66.2,56.5,30.19,NNW,338,0.0,0.0,71,0.00,,---,0.00,VWS V14.01,2013-07-25 12:15:00,
2013-07-25 06:20:00,66.1,56.4,30.19,NNW,338,0.0,0.0,71,0.00,,---,0.00,VWS V14.01,2013-07-25 12:20:00,
2013-07-25 06:25:00,65.9,56.2,30.19,NNW,338,0.0,0.0,71,0.00,,---,0.00,VWS V14.01,2013-07-25 12:25:00,
2013-07-25 06:30:00,65.7,56.0,30.19,NNW,338,0.0,0.0,71,0.00,,---,0.00,VWS V14.01,2013-07-25 12:30:00,
2013-07-25 06:35:00,65.7,56.4,30.19,NNW,338,0.4,0.4,72,0.00,,---,0.00,VWS V14.01,2013-07-25 12:35:00,
2013-07-25 06:36:00,65.7,56.4,30.19,NNW,338,0.4,0.4,72,0.00,,---,0.00,VWS V14.01,2013-07-25 12:36:00,
2013-07-25 06:40:00,65.9,57.4,30.19,NNW,338,0.4,0.4,74,0.00,,---,0.00,VWS V14.01,2013-07-25 12:40:00,
2013-07-25 06:45:00,66.1,57.6,30.19,NNW,338,0.0,0.0,74,0.00,,---,0.00,VWS V14.01,2013-07-25 12:45:00,
2013-07-25 06:50:00,66.4,57.9,30.19,NNW,338,0.0,0.0,74,0.00,,---,0.00,VWS V14.01,2013-07-25 12:50:00,
2013-07-25 06:55:00,66.8,57.9,30.19,NNW,338,0.0,0.0,73,0.00,,---,0.00,VWS V14.01,2013-07-25 12:55:00,
2013-07-25 07:00:00,67.3,58.0,30.19,North,0,0.0,0.0,72,0.00,,---,0.00,VWS V14.01,2013-07-25 13:00:00,
2013-07-25 07:05:00,68.0,58.3,30.19,NNW,338,0.0,0.0,71,0.00,,---,0.00,VWS V14.01,2013-07-25 13:05:00,
2013-07-25 07:10:00,68.4,58.6,30.19,NW,315,0.0,0.0,71,0.00,,---,0.00,VWS V14.01,2013-07-25 13:10:00,
2013-07-25 07:15:00,68.4,58.2,30.19,WNW,292,0.4,0.4,70,0.00,,---,0.00,VWS V14.01,2013-07-25 13:15:00,
2013-07-25 07:20:00,68.8,58.6,30.19,WNW,292,0.7,0.7,70,0.00,,---,0.00,VWS V14.01,2013-07-25 13:20:00,
2013-07-25 07:25:00,69.1,58.5,30.19,WNW,292,0.7,0.7,69,0.00,,---,0.00,VWS V14.01,2013-07-25 13:25:00,
2013-07-25 07:30:00,69.5,58.9,30.19,WNW,292,0.4,0.4,69,0.00,,---,0.00,VWS V14.01,2013-07-25 13:30:00,
2013-07-25 07:36:00,69.5,58.5,30.20,WNW,292,0.0,0.0,68,0.00,,---,0.00,VWS V14.01,2013-07-25 13:36:00,
2013-07-25 07:41:00,69.8,58.8,30.20,WNW,292,0.0,0.0,68,0.00,,---,0.00,VWS V14.01,2013-07-25 13:41:00,
2013-07-25 07:45:00,70.9,59.4,30.20,WNW,292,0.0,0.0,67,0.00,,---,0.00,VWS V14.01,2013-07-25 13:45:00,
2013-07-25 07:50:00,72.5,59.6,30.20,WSW,248,1.3,1.3,64,0.00,,---,0.00,VWS V14.01,2013-07-25 13:50:00,
2013-07-25 07:55:00,72.9,59.1,30.20,WSW,248,1.8,1.8,62,0.00,,---,0.00,VWS V14.01,2013-07-25 13:55:00,
2013-07-25 08:00:00,72.7,58.9,30.20,SW,225,3.1,3.1,62,0.00,,---,0.00,VWS V14.01,2013-07-25 14:00:00,
2013-07-25 08:05:00,72.4,59.1,30.20,South,180,1.1,1.1,63,0.00,,---,0.31,VWS V14.01,2013-07-25 14:05:00,
2013-07-25 08:10:00,72.9,59.1,30.20,WSW,248,1.1,1.1,62,0.00,,---,0.00,VWS V14.01,2013-07-25 14:10:00,
2013-07-25 08:15:00,72.9,58.7,30.21,SW,225,3.4,3.4,61,0.00,,---,0.00,VWS V14.01,2013-07-25 14:15:00,
2013-07-25 08:20:00,72.4,59.1,30.21,WSW,248,0.4,0.4,63,0.00,,---,0.00,VWS V14.01,2013-07-25 14:20:00,
2013-07-25 08:25:00,73.1,59.3,30.21,West,270,0.9,0.9,62,0.00,,---,0.00,VWS V14.01,2013-07-25 14:25:00,
2013-07-25 08:30:00,72.7,58.9,30.21,SW,225,1.8,1.8,62,0.00,,---,0.00,VWS V14.01,2013-07-25 14:30:00,
2013-07-25 08:35:00,71.6,58.8,30.21,SW,225,1.8,1.8,64,0.00,,---,0.00,VWS V14.01,2013-07-25 14:35:00,
2013-07-25 08:40:00,71.6,58.3,30.21,SW,225,0.7,0.7,63,0.00,,---,0.00,VWS V14.01,2013-07-25 14:40:00,
2013-07-25 08:45:00,71.8,57.2,30.21,SW,225,1.8,1.8,60,0.00,,---,0.00,VWS V14.01,2013-07-25 14:45:00,
2013-07-25 08:50:00,71.6,57.9,30.22,SE,135,1.1,1.1,62,0.00,,---,0.00,VWS V14.01,2013-07-25 14:50:00,
2013-07-25 08:55:00,73.1,58.4,30.22,SSW,202,0.7,0.7,60,0.00,,---,0.00,VWS V14.01,2013-07-25 14:55:00,
2013-07-25 09:00:00,73.1,57.5,30.21,SW,225,4.0,4.0,58,0.00,,---,0.00,VWS V14.01,2013-07-25 15:00:00,
2013-07-25 09:05:00,72.9,57.8,30.22,SSE,158,1.6,1.6,59,0.00,,---,0.00,VWS V14.01,2013-07-25 15:05:00,
2013-07-25 09:10:00,72.4,57.8,30.22,SSW,202,1.8,1.8,60,0.00,,---,0.00,VWS V14.01,2013-07-25 15:10:00,
2013-07-25 09:15:00,72.0,57.8,30.22,SSW,202,0.7,0.7,61,0.00,,---,0.00,VWS V14.01,2013-07-25 15:15:00,
2013-07-25 09:20:00,72.0,57.8,30.22,SW,225,2.0,2.0,61,0.00,,---,0.00,VWS V14.01,2013-07-25 15:20:00,
2013-07-25 09:25:00,71.6,57.9,30.22,SW,225,1.3,1.3,62,0.00,,---,0.00,VWS V14.01,2013-07-25 15:25:00,
2013-07-25 09:30:00,71.8,57.6,30.22,South,180,0.9,0.9,61,0.00,,---,0.00,VWS V14.01,2013-07-25 15:30:00,
2013-07-25 09:35:00,72.2,58.0,30.22,SSW,202,0.9,0.9,61,0.00,,---,0.00,VWS V14.01,2013-07-25 15:35:00,
2013-07-25 09:40:00,72.7,58.0,30.22,South,180,1.3,1.3,60,0.00,,---,0.00,VWS V14.01,2013-07-25 15:40:00,
2013-07-25 09:45:00,73.1,57.5,30.22,SW,225,0.7,0.7,58,0.00,,---,0.00,VWS V14.01,2013-07-25 15:45:00,
2013-07-25 09:50:00,72.5,57.4,30.22,SW,225,2.9,2.9,59,0.00,,---,0.00,VWS V14.01,2013-07-25 15:50:00,
2013-07-25 09:55:00,72.2,57.6,30.21,SW,225,1.1,1.1,60,0.00,,---,0.00,VWS V14.01,2013-07-25 15:55:00,
2013-07-25 10:00:00,72.4,57.8,30.22,SSW,202,1.1,1.1,60,0.00,,---,0.00,VWS V14.01,2013-07-25 16:00:00,
2013-07-25 10:05:00,72.4,57.8,30.22,South,180,2.7,2.7,60,0.00,,---,0.00,VWS V14.01,2013-07-25 16:05:00,
2013-07-25 10:10:00,72.7,58.0,30.22,WSW,248,1.1,1.1,60,0.00,,---,0.00,VWS V14.01,2013-07-25 16:10:00,
2013-07-25 10:15:00,73.8,58.1,30.22,SW,225,3.4,3.4,58,0.00,,---,0.00,VWS V14.01,2013-07-25 16:15:00,
2013-07-25 10:20:00,72.5,57.8,30.22,SW,225,1.3,1.3,60,0.00,,---,0.00,VWS V14.01,2013-07-25 16:20:00,
2013-07-25 10:25:00,73.1,58.9,30.22,South,180,1.1,1.1,61,0.00,,---,0.00,VWS V14.01,2013-07-25 16:25:00,
2013-07-25 10:30:00,73.8,58.6,30.22,WSW,248,2.5,2.5,59,0.00,,---,0.00,VWS V14.01,2013-07-25 16:30:00,
2013-07-25 10:35:00,74.9,59.6,30.22,SSW,202,1.3,1.3,59,0.00,,---,0.00,VWS V14.01,2013-07-25 16:35:00,
2013-07-25 10:40:00,75.4,59.1,30.22,WSW,248,1.1,1.1,57,0.00,,---,0.00,VWS V14.01,2013-07-25 16:40:00,
2013-07-25 10:45:00,74.0,59.2,30.22,SSE,158,1.8,1.8,60,0.00,,---,0.00,VWS V14.01,2013-07-25 16:45:00,
2013-07-25 10:50:00,74.0,58.8,30.22,WSW,248,1.8,1.8,59,0.00,,---,0.00,VWS V14.01,2013-07-25 16:50:00,
2013-07-25 10:55:00,75.6,59.3,30.22,SSW,202,2.9,2.9,57,0.00,,---,0.00,VWS V14.01,2013-07-25 16:55:00,
2013-07-25 11:00:00,76.3,59.5,30.22,SSE,158,2.5,2.5,56,0.00,,---,0.00,VWS V14.01,2013-07-25 17:00:00,
2013-07-25 11:05:00,77.4,59.5,30.22,SSE,158,1.1,1.1,54,0.00,,---,0.00,VWS V14.01,2013-07-25 17:05:00,
2013-07-25 11:10:00,77.6,59.1,30.22,SW,225,2.7,2.7,53,0.00,,---,0.00,VWS V14.01,2013-07-25 17:10:00,
2013-07-25 11:15:00,77.9,59.9,30.22,SSE,158,0.7,0.7,54,0.00,,---,0.00,VWS V14.01,2013-07-25 17:15:00,
2013-07-25 11:20:00,77.9,58.9,30.22,WSW,248,2.5,2.5,52,0.00,,---,0.00,VWS V14.01,2013-07-25 17:20:00,
2013-07-25 11:25:00,76.7,59.3,30.22,SSW,202,1.1,1.1,55,0.00,,---,0.00,VWS V14.01,2013-07-25 17:25:00,
2013-07-25 11:30:00,77.6,59.1,30.22,SW,225,3.8,3.8,53,0.00,,---,0.00,VWS V14.01,2013-07-25 17:30:00,
2013-07-25 11:35:00,77.0,59.1,30.21,ENE,68,1.3,1.3,54,0.00,,---,0.00,VWS V14.01,2013-07-25 17:35:00,
2013-07-25 11:40:00,77.0,59.1,30.21,SSW,202,1.3,1.3,54,0.00,,---,0.00,VWS V14.01,2013-07-25 17:40:00,
2013-07-25 11:45:00,76.7,58.8,30.21,SSW,202,0.7,0.7,54,0.00,,---,0.00,VWS V14.01,2013-07-25 17:45:00,
2013-07-25 11:50:00,77.4,59.5,30.22,SW,225,1.1,1.1,54,0.00,,---,0.00,VWS V14.01,2013-07-25 17:50:00,
2013-07-25 11:55:00,76.0,58.7,30.21,SW,225,3.4,3.4,55,0.00,,---,0.00,VWS V14.01,2013-07-25 17:55:00,
2013-07-25 12:00:00,76.9,59.5,30.21,SSW,202,0.7,0.7,55,0.00,,---,0.00,VWS V14.01,2013-07-25 18:00:00,
2013-07-25 12:05:00,77.6,59.7,30.21,SSW,202,1.8,1.8,54,0.00,,---,0.00,VWS V14.01,2013-07-25 18:05:00,
2013-07-25 12:10:00,78.5,59.4,30.21,SW,225,0.4,0.4,52,0.00,,---,0.00,VWS V14.01,2013-07-25 18:10:00,
2013-07-25 12:15:00,77.4,58.4,30.20,WSW,248,4.0,4.0,52,0.00,,---,0.00,VWS V14.01,2013-07-25 18:15:00,
2013-07-25 12:20:00,76.9,59.0,30.20,SW,225,2.7,2.7,54,0.00,,---,0.00,VWS V14.01,2013-07-25 18:20:00,
2013-07-25 12:25:00,77.6,58.6,30.21,SSW,202,1.3,1.3,52,0.00,,---,0.00,VWS V14.01,2013-07-25 18:25:00,
2013-07-25 12:30:00,78.7,59.1,30.20,WSW,248,0.4,0.4,51,0.00,,---,0.00,VWS V14.01,2013-07-25 18:30:00,
2013-07-25 12:35:00,79.2,59.0,30.20,SSW,202,2.0,2.0,50,0.00,,---,0.00,VWS V14.01,2013-07-25 18:35:00,
2013-07-25 12:40:00,77.9,58.9,30.20,West,270,3.4,3.4,52,0.00,,---,0.00,VWS V14.01,2013-07-25 18:40:00,
2013-07-25 12:45:00,77.9,58.3,30.20,SSW,202,1.8,1.8,51,0.00,,---,0.00,VWS V14.01,2013-07-25 18:45:00,
2013-07-25 12:50:00,78.3,59.2,30.20,SSE,158,1.8,2.5,52,0.00,,---,0.00,VWS V14.01,2013-07-25 18:50:00,
2013-07-25 12:55:00,78.7,59.1,30.20,SSE,158,2.5,2.5,51,0.00,,---,0.00,VWS V14.01,2013-07-25 18:55:00,
2013-07-25 13:00:00,79.2,58.4,30.19,South,180,1.6,1.6,49,0.00,,---,0.00,VWS V14.01,2013-07-25 19:00:00,
2013-07-25 13:05:00,80.1,59.2,30.20,NNW,338,3.4,3.4,49,0.00,,---,0.00,VWS V14.01,2013-07-25 19:05:00,
2013-07-25 13:10:00,80.1,59.2,30.19,SW,225,1.3,1.3,49,0.00,,---,0.00,VWS V14.01,2013-07-25 19:10:00,
2013-07-25 13:15:00,79.9,59.0,30.19,SW,225,1.3,1.3,49,0.00,,---,0.00,VWS V14.01,2013-07-25 19:15:00,
2013-07-25 13:20:00,80.3,59.4,30.19,SSW,202,3.8,3.8,49,0.00,,---,0.00,VWS V14.01,2013-07-25 19:20:00,
2013-07-25 13:25:00,80.8,59.9,30.19,West,270,0.9,0.9,49,0.00,,---,0.00,VWS V14.01,2013-07-25 19:25:00,
2013-07-25 13:30:00,80.5,59.0,30.19,SSW,202,3.6,3.6,48,0.00,,---,0.00,VWS V14.01,2013-07-25 19:30:00,
2013-07-25 13:35:00,80.5,59.0,30.18,SW,225,4.3,4.3,48,0.00,,---,0.00,VWS V14.01,2013-07-25 19:35:00,
2013-07-25 13:40:00,80.8,58.7,30.18,South,180,3.6,3.6,47,0.00,,---,0.00,VWS V14.01,2013-07-25 19:40:00,
2013-07-25 13:45:00,79.9,59.0,30.18,South,180,1.8,1.8,49,0.00,,---,0.00,VWS V14.01,2013-07-25 19:45:00,
2013-07-25 13:50:00,81.0,58.9,30.18,SW,225,2.9,2.9,47,0.00,,---,0.00,VWS V14.01,2013-07-25 19:50:00,
2013-07-25 13:55:00,80.8,58.1,30.17,SW,225,3.4,3.4,46,0.00,,---,0.00,VWS V14.01,2013-07-25 19:55:00,
2013-07-25 14:00:00,80.8,58.7,30.17,SSW,202,2.2,2.2,47,0.00,,---,0.00,VWS V14.01,2013-07-25 20:00:00,
2013-07-25 14:05:00,81.0,58.9,30.17,South,180,2.5,2.5,47,0.00,,---,0.00,VWS V14.01,2013-07-25 20:05:00,
2013-07-25 14:10:00,80.3,58.2,30.17,SSW,202,1.6,1.6,47,0.00,,---,0.00,VWS V14.01,2013-07-25 20:10:00,
2013-07-25 14:15:00,80.8,59.3,30.16,WSW,248,1.8,1.8,48,0.00,,---,0.00,VWS V14.01,2013-07-25 20:15:00,
2013-07-25 14:20:00,81.5,58.8,30.17,SW,225,4.0,4.0,46,0.00,,---,0.00,VWS V14.01,2013-07-25 20:20:00,
2013-07-25 14:25:00,81.0,58.3,30.16,WSW,248,4.0,4.0,46,0.00,,---,0.00,VWS V14.01,2013-07-25 20:25:00,
2013-07-25 14:30:00,80.1,58.1,30.16,SSW,202,4.3,4.3,47,0.00,,---,0.00,VWS V14.01,2013-07-25 20:30:00,
2013-07-25 14:35:00,80.8,58.1,30.16,SW,225,2.0,2.0,46,0.00,,---,0.00,VWS V14.01,2013-07-25 20:35:00,
2013-07-25 14:40:00,80.8,58.1,30.16,SW,225,2.5,2.5,46,0.00,,---,0.00,VWS V14.01,2013-07-25 20:40:00,
2013-07-25 14:45:00,81.4,58.7,30.16,West,270,0.7,0.7,46,0.00,,---,0.00,VWS V14.01,2013-07-25 20:45:00,
2013-07-25 14:50:00,81.9,58.5,30.16,WSW,248,4.0,4.0,45,0.00,,---,0.00,VWS V14.01,2013-07-25 20:50:00,
2013-07-25 14:55:00,81.7,58.3,30.16,SSW,202,1.8,1.8,45,0.00,,---,0.00,VWS V14.01,2013-07-25 20:55:00,
2013-07-25 15:00:00,82.1,58.7,30.15,SW,225,2.5,2.5,45,0.00,,---,0.00,VWS V14.01,2013-07-25 21:00:00,
2013-07-25 15:05:00,81.7,58.3,30.15,SSW,202,2.5,2.5,45,0.00,,---,0.00,VWS V14.01,2013-07-25 21:05:00,
2013-07-25 15:10:00,81.9,58.5,30.15,South,180,2.2,2.2,45,0.00,,---,0.00,VWS V14.01,2013-07-25 21:10:00,
2013-07-25 15:15:00,82.3,58.2,30.15,SW,225,5.4,5.4,44,0.00,,---,0.00,VWS V14.01,2013-07-25 21:15:00,
2013-07-25 15:20:00,82.4,58.3,30.15,SSW,202,2.9,2.9,44,0.00,,---,0.00,VWS V14.01,2013-07-25 21:20:00,
2013-07-25 15:25:00,82.8,58.7,30.15,SW,225,4.3,4.3,44,0.00,,---,0.00,VWS V14.01,2013-07-25 21:25:00,
2013-07-25 15:30:00,82.6,57.9,30.14,SSW,202,1.1,1.1,43,0.00,,---,0.00,VWS V14.01,2013-07-25 21:30:00,
2013-07-25 15:35:00,82.8,58.0,30.14,SW,225,2.0,2.0,43,0.00,,---,0.00,VWS V14.01,2013-07-25 21:35:00,
2013-07-25 15:40:00,83.3,57.8,30.14,WSW,248,2.5,2.5,42,0.00,,---,0.00,VWS V14.01,2013-07-25 21:40:00,
2013-07-25 15:45:00,83.9,57.7,30.13,SW,225,2.5,2.5,41,0.00,,---,0.00,VWS V14.01,2013-07-25 21:45:00,
2013-07-25 15:50:00,84.4,58.2,30.13,SE,135,1.3,1.3,41,0.00,,---,0.00,VWS V14.01,2013-07-25 21:50:00,
2013-07-25 15:55:00,85.3,57.6,30.13,South,180,6.0,6.0,39,0.00,,---,0.00,VWS V14.01,2013-07-25 21:55:00,
2013-07-25 16:00:00,85.5,58.5,30.13,SSW,202,2.0,2.0,40,0.00,,---,0.00,VWS V14.01,2013-07-25 22:00:00,
2013-07-25 16:05:00,85.5,57.7,30.13,SSW,202,1.6,1.6,39,0.00,,---,0.31,VWS V14.01,2013-07-25 22:05:00,
2013-07-25 16:10:00,83.9,57.0,30.13,South,180,3.4,3.4,40,0.00,,---,0.00,VWS V14.01,2013-07-25 22:10:00,
2013-07-25 16:15:00,83.5,57.3,30.12,SSW,202,2.2,2.2,41,0.00,,---,0.00,VWS V14.01,2013-07-25 22:15:00,
2013-07-25 16:20:00,84.1,57.9,30.13,SW,225,3.4,3.4,41,0.00,,---,0.00,VWS V14.01,2013-07-25 22:20:00,
2013-07-25 16:25:00,85.1,58.8,30.12,SSW,202,0.2,0.2,41,0.00,,---,0.00,VWS V14.01,2013-07-25 22:25:00,
2013-07-25 16:30:00,85.0,58.0,30.12,South,180,2.0,2.0,40,0.00,,---,0.00,VWS V14.01,2013-07-25 22:30:00,
2013-07-25 16:35:00,85.3,58.3,30.12,WSW,248,1.6,1.6,40,0.00,,---,0.00,VWS V14.01,2013-07-25 22:35:00,
2013-07-25 16:40:00,85.7,57.9,30.12,SSW,202,3.4,3.4,39,0.00,,---,0.00,VWS V14.01,2013-07-25 22:40:00,
2013-07-25 16:45:00,85.0,58.0,30.12,NW,315,1.3,1.3,40,0.00,,---,0.00,VWS V14.01,2013-07-25 22:45:00,
2013-07-25 16:50:00,86.4,58.5,30.12,SSE,158,1.6,1.6,39,0.00,,---,0.00,VWS V14.01,2013-07-25 22:50:00,
2013-07-25 16:55:00,85.9,57.4,30.12,SW,225,4.9,4.9,38,0.00,,---,0.00,VWS V14.01,2013-07-25 22:55:00,
2013-07-25 17:00:00,85.3,58.3,30.12,SW,225,3.6,3.6,40,0.00,,---,0.00,VWS V14.01,2013-07-25 23:00:00,
2013-07-25 17:05:00,86.6,58.7,30.12,West,270,0.7,0.7,39,0.00,,---,0.00,VWS V14.01,2013-07-25 23:05:00,
2013-07-25 17:10:00,87.8,59.8,30.12,SSE,158,1.8,1.8,39,0.00,,---,0.00,VWS V14.01,2013-07-25 23:10:00,
2013-07-25 17:15:00,86.9,58.3,30.12,WSW,248,4.3,4.3,38,0.00,,---,0.00,VWS V14.01,2013-07-25 23:15:00,
2013-07-25 17:20:00,87.3,58.6,30.12,NNE,22,2.2,2.2,38,0.00,,---,0.00,VWS V14.01,2013-07-25 23:20:00,
2013-07-25 17:25:00,87.5,59.5,30.12,NNE,22,0.4,0.4,39,0.00,,---,0.00,VWS V14.01,2013-07-25 23:25:00,
2013-07-25 17:30:00,87.5,58.8,30.11,SW,225,0.7,0.7,38,0.00,,---,0.00,VWS V14.01,2013-07-25 23:30:00,
2013-07-25 17:35:00,86.6,57.2,30.10,SW,225,1.6,1.6,37,0.00,,---,0.00,VWS V14.01,2013-07-25 23:35:00,
2013-07-25 17:40:00,86.0,57.5,30.10,SSW,202,2.9,5.4,38,0.00,,---,0.00,VWS V14.01,2013-07-25 23:40:00,
2013-07-25 17:45:00,85.7,57.2,30.10,SW,225,3.6,3.6,38,0.00,,---,0.00,VWS V14.01,2013-07-25 23:45:00,
2013-07-25 17:50:00,85.7,57.2,30.10,SSW,202,2.5,2.5,38,0.00,,---,0.00,VWS V14.01,2013-07-25 23:50:00,
2013-07-25 17:55:00,85.1,57.4,30.10,WSW,248,2.0,2.0,39,0.00,,---,0.00,VWS V14.01,2013-07-25 23:55:00,
2013-07-25 18:00:00,85.1,57.4,30.10,WSW,248,2.5,2.5,39,0.00,,---,0.00,VWS V14.01,2013-07-26 00:00:00,
2013-07-25 18:05:00,85.3,57.6,30.11,SSW,202,5.4,5.4,39,0.00,,---,0.00,VWS V14.01,2013-07-26 00:05:00,
2013-07-25 18:10:00,85.3,57.6,30.11,SW,225,4.3,4.3,39,0.00,,---,0.00,VWS V14.01,2013-07-26 00:10:00,
2013-07-25 18:15:00,85.1,57.4,30.10,SSW,202,2.0,2.0,39,0.00,,---,0.00,VWS V14.01,2013-07-26 00:15:00,
2013-07-25 18:20:00,84.1,57.2,30.10,SW,225,2.2,2.2,40,0.00,,---,0.00,VWS V14.01,2013-07-26 00:20:00,
2013-07-25 18:25:00,83.3,56.5,30.10,SW,225,3.8,3.8,40,0.00,,---,0.00,VWS V14.01,2013-07-26 00:25:00,
2013-07-25 18:30:00,83.3,56.5,30.10,SSW,202,2.0,2.2,40,0.00,,---,0.00,VWS V14.01,2013-07-26 00:30:00,
2013-07-25 18:35:00,83.2,56.4,30.10,South,180,1.1,1.1,40,0.00,,---,0.00,VWS V14.01,2013-07-26 00:35:00,
2013-07-25 18:40:00,83.2,57.1,30.11,SW,225,2.0,2.0,41,0.00,,---,0.00,VWS V14.01,2013-07-26 00:40:00,
2013-07-25 18:45:00,83.3,57.2,30.11,SW,225,1.1,1.1,41,0.00,,---,0.00,VWS V14.01,2013-07-26 00:45:00,
2013-07-25 18:50:00,83.2,57.8,30.11,SW,225,6.3,6.3,42,0.00,,---,0.00,VWS V14.01,2013-07-26 00:50:00,
2013-07-25 18:55:00,82.4,57.7,30.11,SSW,202,1.1,1.1,43,0.00,,---,0.00,VWS V14.01,2013-07-26 00:55:00,
2013-07-25 19:00:00,82.4,57.7,30.12,SW,225,4.3,4.3,43,0.00,,---,0.00,VWS V14.01,2013-07-26 01:00:00,
2013-07-25 19:05:00,82.3,57.6,30.12,SW,225,4.7,4.7,43,0.00,,---,0.00,VWS V14.01,2013-07-26 01:05:00,
2013-07-25 19:10:00,82.1,58.0,30.12,SSW,202,2.2,2.2,44,0.00,,---,0.00,VWS V14.01,2013-07-26 01:10:00,
2013-07-25 19:15:00,81.7,57.7,30.12,SSW,202,2.5,2.5,44,0.00,,---,0.00,VWS V14.01,2013-07-26 01:15:00,
2013-07-25 19:20:00,81.5,57.5,30.12,South,180,2.9,2.9,44,0.00,,---,0.00,VWS V14.01,2013-07-26 01:20:00,
2013-07-25 19:25:00,81.0,57.7,30.12,SSW,202,3.4,3.4,45,0.00,,---,0.00,VWS V14.01,2013-07-26 01:25:00,
2013-07-25 19:30:00,80.8,57.5,30.12,SSW,202,1.3,1.3,45,0.00,,---,0.00,VWS V14.01,2013-07-26 01:30:00,
2013-07-25 19:35:00,80.6,57.3,30.12,SSW,202,1.1,1.1,45,0.00,,---,0.00,VWS V14.01,2013-07-26 01:35:00,
2013-07-25 19:40:00,80.6,57.3,30.12,SSW,202,1.8,1.8,45,0.00,,---,0.00,VWS V14.01,2013-07-26 01:40:00,
2013-07-25 19:45:00,80.5,57.8,30.13,SSW,202,1.1,1.1,46,0.00,,---,0.00,VWS V14.01,2013-07-26 01:45:00,
2013-07-25 19:50:00,80.3,57.7,30.12,SSW,202,1.1,1.1,46,0.00,,---,0.00,VWS V14.01,2013-07-26 01:50:00,
2013-07-25 19:55:00,79.9,57.3,30.13,South,180,1.6,1.6,46,0.00,,---,0.00,VWS V14.01,2013-07-26 01:55:00,
2013-07-25 20:00:00,79.7,57.7,30.13,SSW,202,1.8,1.8,47,0.00,,---,0.00,VWS V14.01,2013-07-26 02:00:00,
2013-07-25 20:05:00,79.6,57.6,30.13,SW,225,1.1,1.1,47,0.00,,---,0.00,VWS V14.01,2013-07-26 02:05:00,
2013-07-25 20:10:00,79.6,57.6,30.13,South,180,2.0,2.0,47,0.00,,---,0.00,VWS V14.01,2013-07-26 02:10:00,
2013-07-25 20:15:00,79.2,57.8,30.14,South,180,1.3,1.3,48,0.00,,---,0.00,VWS V14.01,2013-07-26 02:15:00,
2013-07-25 20:20:00,79.2,58.4,30.14,SSW,202,1.1,1.1,49,0.00,,---,0.00,VWS V14.01,2013-07-26 02:20:00,
2013-07-25 20:25:00,79.2,58.4,30.14,SSW,202,2.5,2.5,49,0.00,,---,0.00,VWS V14.01,2013-07-26 02:25:00,
2013-07-25 20:30:00,79.0,58.8,30.15,SSW,202,2.7,2.7,50,0.00,,---,0.00,VWS V14.01,2013-07-26 02:30:00,
2013-07-25 20:35:00,78.8,58.6,30.14,SSW,202,1.6,1.6,50,0.00,,---,0.00,VWS V14.01,2013-07-26 02:35:00,
2013-07-25 20:40:00,78.8,59.2,30.15,South,180,3.1,3.1,51,0.00,,---,0.00,VWS V14.01,2013-07-26 02:40:00,
2013-07-25 20:45:00,78.7,59.1,30.15,South,180,2.7,2.7,51,0.00,,---,0.00,VWS V14.01,2013-07-26 02:45:00,
2013-07-25 20:50:00,78.5,58.9,30.15,SSW,202,2.5,2.5,51,0.00,,---,0.00,VWS V14.01,2013-07-26 02:50:00,
2013-07-25 20:55:00,78.5,58.9,30.15,SSW,202,3.1,3.1,51,0.00,,---,0.00,VWS V14.01,2013-07-26 02:55:00,
2013-07-25 21:00:00,78.3,58.7,30.15,South,180,0.4,0.4,51,0.00,,---,0.00,VWS V14.01,2013-07-26 03:00:00,
2013-07-25 21:05:00,78.1,59.1,30.15,SSW,202,1.1,1.1,52,0.00,,---,0.00,VWS V14.01,2013-07-26 03:05:00,
2013-07-25 21:10:00,77.9,58.9,30.15,South,180,1.1,1.1,52,0.00,,---,0.00,VWS V14.01,2013-07-26 03:10:00,
2013-07-25 21:15:00,77.9,58.9,30.16,South,180,1.6,1.6,52,0.00,,---,0.00,VWS V14.01,2013-07-26 03:15:00,
2013-07-25 21:20:00,77.8,58.8,30.16,South,180,2.0,2.0,52,0.00,,---,0.00,VWS V14.01,2013-07-26 03:20:00,
2013-07-25 21:25:00,77.8,58.8,30.16,South,180,1.8,1.8,52,0.00,,---,0.00,VWS V14.01,2013-07-26 03:25:00,
2013-07-25 21:30:00,77.8,58.8,30.17,South,180,2.0,2.0,52,0.00,,---,0.00,VWS V14.01,2013-07-26 03:30:00,
2013-07-25 21:35:00,77.8,58.8,30.16,SSW,202,1.6,1.6,52,0.00,,---,0.00,VWS V14.01,2013-07-26 03:35:00,
2013-07-25 21:40:00,77.6,59.1,30.16,South,180,1.6,1.6,53,0.00,,---,0.00,VWS V14.01,2013-07-26 03:40:00,
2013-07-25 21:45:00,77.4,59.0,30.17,South,180,1.8,1.8,53,0.00,,---,0.00,VWS V14.01,2013-07-26 03:45:00,
2013-07-25 21:50:00,77.4,59.0,30.17,SSW,202,2.5,2.5,53,0.00,,---,0.00,VWS V14.01,2013-07-26 03:50:00,
2013-07-25 21:55:00,77.4,59.0,30.17,SSE,158,3.8,3.8,53,0.00,,---,0.00,VWS V14.01,2013-07-26 03:55:00,
2013-07-25 22:00:00,77.2,58.8,30.17,South,180,0.4,0.4,53,0.00,,---,0.00,VWS V14.01,2013-07-26 04:00:00,
2013-07-25 22:01:00,77.2,58.8,30.17,South,180,0.4,0.4,53,0.00,,---,0.00,VWS V14.01,2013-07-26 04:01:00,
2013-07-25 22:06:00,77.2,59.3,30.17,South,180,2.0,2.0,54,0.00,,---,0.00,VWS V14.01,2013-07-26 04:06:00,
2013-07-25 22:11:00,77.2,59.3,30.17,SSW,202,2.0,2.0,54,0.00,,---,0.00,VWS V14.01,2013-07-26 04:11:00,
2013-07-25 22:16:00,77.2,58.8,30.18,SSW,202,3.4,3.4,53,0.00,,---,0.00,VWS V14.01,2013-07-26 04:16:00,
2013-07-25 22:21:00,77.0,59.1,30.18,South,180,1.3,1.3,54,0.00,,---,0.00,VWS V14.01,2013-07-26 04:21:00,
2013-07-25 22:26:00,77.2,59.3,30.18,SSE,158,2.0,2.0,54,0.00,,---,0.00,VWS V14.01,2013-07-26 04:26:00,
2013-07-25 22:31:00,77.2,58.8,30.18,SSE,158,1.6,1.6,53,0.00,,---,0.00,VWS V14.01,2013-07-26 04:31:00,
2013-07-25 22:36:00,77.4,59.0,30.18,South,180,3.4,3.4,53,0.00,,---,0.00,VWS V14.01,2013-07-26 04:36:00,
2013-07-25 22:41:00,77.6,59.1,30.18,ESE,112,3.4,3.4,53,0.00,,---,0.00,VWS V14.01,2013-07-26 04:41:00,
2013-07-25 22:46:00,77.8,58.8,30.18,ESE,112,3.6,3.6,52,0.00,,---,0.00,VWS V14.01,2013-07-26 04:46:00,
2013-07-25 22:51:00,77.8,58.8,30.18,SSE,158,4.7,4.7,52,0.00,,---,0.00,VWS V14.01,2013-07-26 04:51:00,
2013-07-25 22:56:00,77.4,57.9,30.18,SSE,158,3.6,3.6,51,0.00,,---,0.00,VWS V14.01,2013-07-26 04:56:00,
2013-07-25 23:02:00,77.0,57.5,30.17,SE,135,3.6,3.6,51,0.00,,---,0.00,VWS V14.01,2013-07-26 05:02:00,
2013-07-25 23:07:00,76.7,57.2,30.17,South,180,2.9,2.9,51,0.00,,---,0.00,VWS V14.01,2013-07-26 05:07:00,
2013-07-25 23:12:00,76.5,57.6,30.17,SSE,158,5.4,5.4,52,0.00,,---,0.00,VWS V14.01,2013-07-26 05:12:00,
2013-07-25 23:17:00,76.5,57.6,30.17,SE,135,6.0,6.0,52,0.00,,---,0.00,VWS V14.01,2013-07-26 05:17:00,
2013-07-25 23:22:00,76.5,57.6,30.18,SE,135,4.0,4.0,52,0.00,,---,0.00,VWS V14.01,2013-07-26 05:22:00,
2013-07-25 23:27:00,76.7,57.8,30.17,SE,135,3.4,3.4,52,0.00,,---,0.00,VWS V14.01,2013-07-26 05:27:00,
2013-07-25 23:32:00,76.7,57.8,30.18,SSW,202,3.4,3.4,52,0.00,,---,0.00,VWS V14.01,2013-07-26 05:32:00,
2013-07-25 23:37:00,76.9,58.0,30.17,SSE,158,2.0,2.0,52,0.00,,---,0.00,VWS V14.01,2013-07-26 05:37:00,
2013-07-25 23:42:00,77.0,58.0,30.17,SE,135,3.8,3.8,52,0.00,,---,0.00,VWS V14.01,2013-07-26 05:42:00,
2013-07-25 23:47:00,77.0,58.0,30.18,SSW,202,2.9,2.9,52,0.00,,---,0.00,VWS V14.01,2013-07-26 05:47:00,
2013-07-25 23:52:00,77.0,58.0,30.19,North,0,1.8,1.8,52,0.00,,---,0.00,VWS V14.01,2013-07-26 05:52:00,
2013-07-25 23:57:00,77.0,58.0,30.20,North,0,3.8,3.8,52,0.00,,---,0.00,VWS V14.01,2013-07-26 05:57:00,